Location: Bucharest
(44.4268°N, 26.1025°E)
Time: 02:01:36
(UTC+03:00)

ESTCUBE 1 - Pass Details

Date: 06 July 2022
Orbit: 645 x 657 km, 97.9° (Epoch: 16 August)

Event Time Altitude Azimuth Distance (km) Brightness Sun altitude
Exits shadow 23:35:36 35° 188° (S) 1,048 ? -18.8°
Maximum altitude 23:37:22 65° 258° (WSW) 713 ? -18.9°
Drops below altitude 10° 23:41:51 10° 341° (NNW) 2,062 ? -19.3°
Sets 23:44:06 0° 345° (NNW) 2,979 ? -19.4°
